�������l�o���
Date,Time,MP-1(��Sv/h),MP-2(��Sv/h),MP-3(��Sv/h),MP-4(��Sv/h),MP-5(��Sv/h),MP-6(��Sv/h),MP-7(��Sv/h),MP-8(��Sv/h),����,����(m/s),���J
2019/11/15,00:00,0.722,1.039,0.688,1.289,0.910,0.413,0.722,0.685,�k�k��,4.1,��
2019/11/15,00:10,0.723,1.039,0.688,1.289,0.911,0.411,0.721,0.684,�k�k��,4.6,��
2019/11/15,00:20,0.721,1.040,0.685,1.289,0.909,0.413,0.721,0.685,�k��,2.6,��
2019/11/15,00:30,0.721,1.041,0.688,1.290,0.908,0.413,0.723,0.682,�k��,1.2,��
2019/11/15,00:40,0.721,1.041,0.686,1.287,0.908,0.413,0.720,0.683,-,CALM,��
2019/11/15,00:50,0.723,1.039,0.685,1.286,0.910,0.413,0.723,0.684,-,CALM,��
2019/11/15,01:00,0.722,1.039,0.686,1.289,0.910,0.413,0.720,0.683,-,CALM,��
2019/11/15,01:10,0.722,1.039,0.687,1.285,0.912,0.414,0.722,0.684,�k��,1.0,��
2019/11/15,01:20,0.721,1.040,0.686,1.289,0.910,0.414,0.722,0.683,�k��,1.4,��
2019/11/15,01:30,0.721,1.039,0.686,1.286,0.910,0.412,0.721,0.683,�k��,1.7,��
2019/11/15,01:40,0.721,1.039,0.687,1.288,0.910,0.412,0.721,0.684,���k��,2.3,��
2019/11/15,01:50,0.722,1.040,0.686,1.288,0.910,0.413,0.721,0.682,�k��,2.7,��
2019/11/15,02:00,0.721,1.040,0.687,1.286,0.911,0.412,0.721,0.684,�k��,2.4,��
2019/11/15,02:10,0.721,1.040,0.684,1.289,0.911,0.412,0.722,0.684,���k��,2.6,��
2019/11/15,02:20,0.722,1.039,0.687,1.288,0.908,0.413,0.722,0.684,���k��,2.6,��
2019/11/15,02:30,0.722,1.038,0.687,1.288,0.911,0.412,0.721,0.684,��,2.6,��
2019/11/15,02:40,0.721,1.039,0.687,1.289,0.910,0.413,0.720,0.682,���k��,2.5,��
2019/11/15,02:50,0.721,1.039,0.686,1.289,0.910,0.412,0.723,0.685,���k��,2.6,��
2019/11/15,03:00,0.721,1.039,0.687,1.289,0.910,0.414,0.720,0.682,��,2.3,��
2019/11/15,03:10,0.721,1.039,0.686,1.288,0.909,0.412,0.722,0.683,��,2.3,��
2019/11/15,03:20,0.719,1.039,0.686,1.287,0.911,0.413,0.721,0.683,��,2.8,��
2019/11/15,03:30,0.719,1.038,0.686,1.290,0.910,0.414,0.721,0.682,���쐼,2.9,��
2019/11/15,03:40,0.721,1.040,0.686,1.287,0.910,0.413,0.721,0.682,���쐼,3.6,��
2019/11/15,03:50,0.720,1.040,0.687,1.287,0.910,0.414,0.721,0.685,���쐼,3.3,��
2019/11/15,04:00,0.722,1.039,0.686,1.287,0.909,0.412,0.722,0.683,���쐼,4.9,��
2019/11/15,04:10,0.722,1.038,0.685,1.287,0.911,0.413,0.720,0.683,���쐼,5.0,��
2019/11/15,04:20,0.721,1.039,0.686,1.286,0.910,0.414,0.720,0.684,���쐼,3.9,��
2019/11/15,04:30,0.719,1.038,0.685,1.289,0.911,0.410,0.720,0.682,��,5.2,��
2019/11/15,04:40,0.722,1.040,0.688,1.286,0.909,0.414,0.723,0.683,���쐼,4.6,��
2019/11/15,04:50,0.721,1.038,0.687,1.286,0.911,0.413,0.720,0.682,��,4.7,��
2019/11/15,05:00,0.722,1.039,0.687,1.287,0.908,0.411,0.720,0.682,��,5.6,��
2019/11/15,05:10,0.720,1.038,0.686,1.286,0.908,0.412,0.720,0.683,��,3.9,��
2019/11/15,05:20,0.721,1.037,0.684,1.289,0.911,0.412,0.720,0.683,���쐼,4.2,��
2019/11/15,05:30,0.720,1.039,0.685,1.286,0.909,0.413,0.719,0.683,���쐼,4.2,��
2019/11/15,05:40,0.721,1.038,0.685,1.289,0.909,0.413,0.720,0.682,���쐼,5.0,��
2019/11/15,05:50,0.718,1.038,0.687,1.289,0.909,0.413,0.720,0.682,��,5.2,��
2019/11/15,06:00,0.721,1.037,0.685,1.286,0.908,0.413,0.719,0.682,��,3.1,��
2019/11/15,06:10,0.718,1.036,0.683,1.286,0.907,0.412,0.720,0.684,��,2.3,��
2019/11/15,06:20,0.721,1.035,0.686,1.288,0.908,0.412,0.719,0.682,��,3.2,��
2019/11/15,06:30,0.720,1.038,0.684,1.285,0.909,0.413,0.721,0.682,���쐼,2.9,��
2019/11/15,06:40,0.721,1.038,0.685,1.287,0.907,0.413,0.720,0.682,���쐼,2.3,��
2019/11/15,06:50,0.722,1.037,0.684,1.289,0.908,0.414,0.720,0.681,���쐼,2.3,��
2019/11/15,07:00,0.720,1.037,0.684,1.286,0.907,0.413,0.719,0.683,���쐼,1.4,��
2019/11/15,07:10,0.720,1.037,0.686,1.286,0.908,0.413,0.720,0.682,��,0.7,��
2019/11/15,07:20,0.721,1.038,0.684,1.286,0.908,0.413,0.719,0.682,���k��,0.5,��
2019/11/15,07:30,0.720,1.040,0.684,1.289,0.907,0.412,0.722,0.682,�k��,1.6,��
2019/11/15,07:40,0.721,1.037,0.684,1.287,0.906,0.414,0.719,0.684,�k��,2.5,��
2019/11/15,07:50,0.722,1.039,0.684,1.287,0.909,0.414,0.720,0.684,�k��,2.7,��
2019/11/15,08:00,0.723,1.039,0.684,1.286,0.910,0.414,0.721,0.682,�k��,3.8,��
2019/11/15,08:10,0.722,1.038,0.686,1.289,0.908,0.414,0.722,0.682,�k��,1.9,��
2019/11/15,08:20,0.723,1.039,0.685,1.287,0.908,0.412,0.721,0.684,��,1.3,��
2019/11/15,08:30,0.723,1.039,0.687,1.288,0.909,0.413,0.723,0.681,�쓌,0.7,��
2019/11/15,08:40,0.724,1.038,0.685,1.287,0.909,0.412,0.723,0.684,���k��,1.5,��
2019/11/15,08:50,0.723,1.038,0.684,1.287,0.909,0.410,0.722,0.684,��,1.2,��
2019/11/15,09:00,0.724,1.038,0.683,1.288,0.910,0.412,0.721,0.682,�쓌,1.7,��
2019/11/15,09:10,0.724,1.036,0.684,1.288,0.910,0.410,0.719,0.684,�쓌,1.8,��
2019/11/15,09:20,0.721,1.035,0.683,1.289,0.910,0.412,0.720,0.684,���쓌,2.9,��
2019/11/15,09:30,0.722,1.036,0.683,1.289,0.908,0.415,0.719,0.684,���쓌,1.6,��
2019/11/15,09:40,0.723,1.033,0.685,1.289,0.909,0.415,0.719,0.682,���쓌,2.0,��
2019/11/15,09:50,0.722,1.029,0.685,1.287,0.911,0.416,0.719,0.684,���쓌,2.7,��
2019/11/15,10:00,0.724,1.036,0.684,1.287,0.909,0.416,0.719,0.684,�쓌,2.2,��
2019/11/15,10:10,0.724,1.037,0.684,1.287,0.907,0.415,0.720,0.683,�쓌,3.0,��
2019/11/15,10:20,0.724,1.038,0.684,1.287,0.911,0.414,0.721,0.684,��쓌,3.3,��
2019/11/15,10:30,0.721,1.037,0.684,1.286,-,0.416,0.720,0.682,��쓌,3.9,��
2019/11/15,10:40,0.723,1.039,0.684,1.288,-,0.416,0.720,0.684,��쓌,4.0,��
2019/11/15,10:50,0.724,1.037,0.687,1.289,-,0.414,0.720,0.684,��쓌,4.5,��
2019/11/15,11:00,0.722,1.036,0.687,1.286,-,0.414,0.721,0.682,��쓌,5.5,��
2019/11/15,11:10,0.722,1.038,0.687,1.289,-,0.414,0.720,0.684,��쓌,6.4,��
2019/11/15,11:20,0.723,1.041,0.688,1.289,-,0.414,0.721,0.681,��쓌,7.1,��
2019/11/15,11:30,0.722,1.037,0.685,1.291,-,0.413,0.721,0.683,��쓌,6.3,��
2019/11/15,11:40,0.723,1.039,0.685,1.289,-,0.413,0.721,0.683,��쓌,8.8,��
2019/11/15,11:50,0.723,1.039,0.686,1.290,-,0.414,0.721,0.685,��쓌,8.2,��
2019/11/15,12:00,0.723,1.038,0.688,1.289,-,0.416,0.723,0.684,��쓌,6.3,��
2019/11/15,12:10,0.722,1.042,0.689,1.290,-,0.416,0.721,0.685,��쓌,8.2,��
2019/11/15,12:20,0.726,1.043,0.688,1.287,-,0.418,0.721,0.684,��,7.7,��
2019/11/15,12:30,0.724,1.040,0.687,1.290,-,0.418,0.722,0.684,��,8.3,��
2019/11/15,12:40,0.723,1.043,0.684,1.289,-,0.417,0.722,0.682,��,8.8,��
2019/11/15,12:50,0.724,1.038,0.684,1.289,-,0.420,0.720,0.682,��쓌,9.3,��
2019/11/15,13:00,0.724,1.041,0.685,1.289,-,0.417,0.723,0.682,��,9.9,��
2019/11/15,13:10,0.724,1.041,0.684,1.291,-,0.419,0.721,0.681,��,9.6,��
2019/11/15,13:20,0.724,1.039,0.685,1.290,-,0.416,0.723,0.682,��,9.4,��
2019/11/15,13:30,0.724,1.038,0.684,1.291,-,0.418,0.724,0.682,��,8.5,��
2019/11/15,13:40,0.725,1.040,0.685,1.290,-,0.419,0.721,0.683,��,9.6,��
2019/11/15,13:50,0.725,1.039,0.685,1.289,-,0.418,0.722,0.683,��,9.4,��
2019/11/15,14:00,0.726,1.041,0.687,1.292,-,0.418,0.721,0.682,��,7.4,��
2019/11/15,14:10,0.724,1.043,0.686,1.292,-,0.419,0.722,0.682,��,8.3,��
2019/11/15,14:20,0.725,1.042,0.689,1.291,-,0.417,0.722,0.682,��,7.7,��
2019/11/15,14:30,0.722,1.039,0.689,1.290,-,0.418,0.723,0.682,��,5.6,��
2019/11/15,14:40,0.724,1.039,0.688,1.291,-,0.418,0.722,0.681,��,6.6,��
2019/11/15,14:50,0.724,1.043,0.688,1.288,0.911,0.418,0.723,0.681,��,5.8,��
2019/11/15,15:00,0.726,1.044,0.690,1.293,0.913,0.419,0.723,0.683,��,6.3,��
2019/11/15,15:10,0.725,1.044,0.688,1.291,0.913,0.419,0.723,0.683,��,6.9,��
2019/11/15,15:20,0.725,1.046,0.689,1.289,0.914,0.419,0.723,0.685,��,7.4,��
2019/11/15,15:30,0.723,1.047,0.690,1.291,0.915,0.420,0.724,0.684,��,7.5,��
2019/11/15,15:40,0.723,1.045,0.688,1.289,0.912,0.417,0.722,0.686,��,6.4,��
2019/11/15,15:50,0.724,1.047,0.689,1.290,0.913,0.419,0.723,0.685,��쐼,6.0,��
2019/11/15,16:00,0.725,1.047,0.689,1.288,0.912,0.419,0.723,0.686,��쐼,4.7,��
2019/11/15,16:10,0.723,1.048,0.687,1.290,0.912,0.420,0.722,0.685,��쐼,4.5,��
2019/11/15,16:20,0.725,1.047,0.688,1.290,0.912,0.418,0.724,0.685,�쐼,3.8,��
2019/11/15,16:30,0.726,1.048,0.691,1.287,0.910,0.418,0.724,0.685,�쐼,3.9,��
2019/11/15,16:40,0.726,1.050,0.689,1.291,0.913,0.420,0.723,0.685,���쐼,3.3,��
2019/11/15,16:50,0.726,1.048,0.689,1.290,0.914,0.418,0.725,0.682,���쐼,5.6,��
2019/11/15,17:00,0.727,1.048,0.687,1.289,0.915,0.419,0.725,0.682,���쐼,6.9,��
2019/11/15,17:10,0.726,1.047,0.691,1.290,0.914,0.418,0.723,0.686,��,5.8,��
2019/11/15,17:20,0.726,1.047,0.689,1.292,0.914,0.418,0.724,0.683,��,5.6,��
2019/11/15,17:30,0.728,1.049,0.690,1.288,0.916,0.419,0.724,0.685,���쐼,5.5,��
2019/11/15,17:40,0.727,1.044,0.692,1.292,0.915,0.418,0.723,0.684,���쐼,6.3,��
2019/11/15,17:50,0.727,1.048,0.689,1.292,0.915,0.417,0.722,0.685,�쐼,6.0,��
2019/11/15,18:00,0.728,1.047,0.692,1.293,0.914,0.419,0.723,0.683,�쐼,6.9,��
2019/11/15,18:10,0.726,1.047,0.690,1.294,0.914,0.419,0.724,0.683,�쐼,6.9,��
2019/11/15,18:20,0.727,1.046,0.692,1.291,0.913,0.417,0.722,0.685,��쐼,3.9,��
2019/11/15,18:30,0.728,1.046,0.690,1.290,0.914,0.419,0.725,0.684,�쐼,5.0,��
2019/11/15,18:40,0.726,1.044,0.690,1.292,0.915,0.418,0.724,0.684,��쐼,4.9,��
2019/11/15,18:50,0.728,1.045,0.690,1.294,0.916,0.417,0.724,0.685,�쐼,6.0,��
2019/11/15,19:00,0.727,1.045,0.689,1.291,0.916,0.419,0.722,0.684,��쐼,5.6,��
2019/11/15,19:10,0.727,1.045,0.691,1.293,0.915,0.417,0.723,0.685,�쐼,4.7,��
2019/11/15,19:20,0.729,1.043,0.690,1.291,0.916,0.418,0.723,0.684,��쐼,3.6,��
2019/11/15,19:30,0.728,1.047,0.690,1.291,0.914,0.418,0.723,0.685,��쐼,6.0,��
2019/11/15,19:40,0.726,1.044,0.688,1.294,0.914,0.417,0.725,0.683,��쐼,5.8,��
2019/11/15,19:50,0.727,1.043,0.691,1.288,0.916,0.417,0.724,0.684,�쐼,6.1,��
2019/11/15,20:00,0.728,1.047,0.690,1.290,0.915,0.419,0.725,0.684,��쐼,7.5,��
2019/11/15,20:10,0.724,1.044,0.690,1.292,0.914,0.419,0.723,0.685,�쐼,5.8,��
2019/11/15,20:20,0.727,1.047,0.691,1.290,0.914,0.418,0.725,0.685,�쐼,5.7,��
2019/11/15,20:30,0.727,1.046,0.688,1.292,0.914,0.417,0.724,0.685,�쐼,5.5,��
2019/11/15,20:40,0.728,1.045,0.690,1.291,0.914,0.418,0.726,0.685,�쐼,5.0,��
2019/11/15,20:50,0.726,1.041,0.691,1.292,0.915,0.418,0.724,0.683,�쐼,4.9,��
2019/11/15,21:00,0.725,1.045,0.688,1.294,0.914,0.416,0.723,0.685,�쐼,3.6,��
2019/11/15,21:10,0.726,1.043,0.689,1.289,0.916,0.417,0.725,0.684,���쐼,1.4,��
2019/11/15,21:20,0.725,1.044,0.690,1.291,0.916,0.418,0.723,0.683,�k,0.7,��
2019/11/15,21:30,0.725,1.044,0.690,1.292,0.914,0.419,0.723,0.684,��,2.0,��
2019/11/15,21:40,0.726,1.042,0.687,1.292,0.914,0.419,0.723,0.684,���쐼,1.7,��
2019/11/15,21:50,0.727,1.046,0.689,1.291,0.915,0.417,0.724,0.685,�쐼,0.8,��
2019/11/15,22:00,0.727,1.044,0.690,1.289,0.914,0.417,0.724,0.684,���쐼,1.1,��
2019/11/15,22:10,0.724,1.044,0.689,1.292,0.915,0.418,0.723,0.684,��쐼,1.3,��
2019/11/15,22:20,0.728,1.044,0.690,1.293,0.912,0.417,0.724,0.685,��,0.7,��
2019/11/15,22:30,0.728,1.044,0.690,1.289,0.916,0.417,0.723,0.685,��쓌,0.8,��
2019/11/15,22:40,0.727,1.043,0.690,1.293,0.916,0.416,0.723,0.682,�쓌,1.7,��
2019/11/15,22:50,0.727,1.045,0.690,1.293,0.914,0.417,0.723,0.684,���쓌,1.5,��
2019/11/15,23:00,0.727,1.043,0.691,1.290,0.915,0.418,0.723,0.684,���쓌,1.2,��
2019/11/15,23:10,0.726,1.046,0.689,1.289,0.916,0.419,0.725,0.685,��,1.3,��
2019/11/15,23:20,0.727,1.043,0.689,1.293,0.913,0.419,0.723,0.685,���k��,1.9,��
2019/11/15,23:30,0.727,1.045,0.690,1.289,0.917,0.417,0.724,0.686,�k��,3.0,��
2019/11/15,23:40,0.727,1.043,0.690,1.294,0.914,0.417,0.722,0.685,�k��,3.8,��
2019/11/15,23:50,0.729,1.043,0.690,1.292,0.915,0.415,0.724,0.685,���k��,5.3,��
